Terminal Aerodrome Forecast
Issued by NWS Upton, NY

Home | Current Version | Previous Version | Text Only | Print | Product List | Glossary On
Versions: 1 2 3 4 5 6 7 8 9 10 11 12 13 14 15 16 17 18 19 20 21 22 23 24 25 26 27 28 29 30 31
943
FTUS41 KOKX 041120
TAFJFK
TAF
KJFK 041120Z 0412/0518 33012KT P6SM FEW040 SCT250
     FM042200 34007KT P6SM BKN250
     FM050100 04004KT P6SM BKN120 BKN250
     FM050600 12004KT 6SM -RASN SCT030 OVC080
     FM051000 16005KT 4SM -RA SCT010 BKN020 OVC040
     FM051500 21008KT 6SM BR SCT020 BKN030=

USA.gov is the U.S. government's official web portal to all federal, state and local government web resources and services.